User: anonymous   Login
Location: Caltech
(34.1382°N, 118.1253°W)
Time: 05:22:44
(UTC-07:00)
Language:

SEDSat Delta rocket - Orbit

View from above orbital plane
View from above orbital plane
View from above satellite
View from above satellite

Ground track
Ground track

The orbit data is extracted from the following two-line orbital elements,

1 25510U 98061C   17080.79541670 +.00000208 +00000-0 +26805-4 0  9997
2 25510 031.4340 281.4889 0328169 026.0224 080.8966 14.37163553965235
Epoch (UTC): 21 March 2017 19:05:24
Eccentricity: 0.0328169
inclination: 31.4340°
perigee height: 533 km
apogee height: 1002 km
right ascension of ascending node: 281.4889°
argument of perigee: 26.0224°
revolutions per day: 14.37163553
mean anomaly at epoch: 80.8966°
orbit number at epoch: 96523

The dashed part of the orbit path shows where the satellite is in the earth's shadow,  

DLR